"startDT [UTC]","vpos","CH4 [ppm]","stdev(CH4) [ppm]","CO2 [ppm]","stdev(CO2) [ppm]","H2O [ppm]","stdev(H2O)","p_LGR [torr]","T_LGR [C]","mt1_LGR [us]","mt2_LGR [us]","T_ECpre [C]","T_EC1 [C]","T_EC2 [C]","p_inlet [hPa]","p_in [hPa]","p_out [hPa]","T_inlet [C]","RH_inlet [%]","dwpt_inlet [C]","T_vent [C]","RH_vent [%]","dwpt_vent [C]","flow_vent [l min-1]","flow_inlet [l min-1]","dwpt_sample [C]","T_room [C]"
2012-09-07 00:00:00,0.0,1.9341,0.0014,389.83,0.41,230.0,31.8,138.03,31.95,24.65,36.51,1.05,-25.69,-12.81,-47,38,-935,23.8,23.0,1.4,24.4,1.8,-29.1,5.73,2.55,-27.5,30.7
2012-09-07 00:01:00,0.0,1.9343,0.0011,390.07,0.31,220.4,37.4,138.03,31.95,24.65,36.50,1.05,-25.69,-13.82,-47,38,-935,23.8,23.1,1.5,24.3,1.8,-29.2,5.73,2.54,-27.5,30.6
2012-09-07 00:02:00,0.0,1.9351,0.0015,389.97,0.37,237.6,36.8,138.03,31.95,24.65,36.51,0.96,-25.72,-14.78,-47,38,-935,23.8,23.2,1.5,24.3,1.8,-29.1,5.73,2.52,-27.6,30.6
2012-09-07 00:03:00,0.0,1.9285,0.0017,389.56,0.32,223.6,26.8,138.03,31.94,24.65,36.51,1.00,-25.73,-15.67,-47,38,-935,23.7,23.1,1.4,24.2,1.8,-29.2,5.73,2.54,-27.6,30.5
2012-09-07 00:04:00,0.0,1.9367,0.0021,390.20,0.37,224.1,34.6,138.03,31.94,24.65,36.51,1.07,-25.75,-16.49,-47,38,-935,23.7,23.3,1.5,24.2,1.8,-29.0,5.73,2.57,-27.6,30.4
2012-09-07 00:05:00,0.0,1.9401,0.0013,390.47,0.27,229.5,29.0,138.03,31.94,24.65,36.50,1.00,-25.76,-17.16,-47,39,-935,23.6,23.5,1.6,24.2,1.9,-28.8,5.73,2.55,-27.6,30.3
2012-09-07 00:06:00,0.0,1.9323,0.0037,389.81,0.46,216.4,36.1,138.03,31.94,24.65,36.51,0.95,-25.78,-17.89,-47,39,-935,23.6,23.4,1.5,24.1,1.9,-28.8,5.73,2.53,-27.6,30.3
2012-09-07 00:07:00,0.0,1.9307,0.0013,389.76,0.33,223.1,34.1,138.03,31.94,24.65,36.50,1.02,-25.79,-18.59,-47,39,-935,23.6,23.3,1.4,24.1,1.9,-28.8,5.73,2.54,-27.6,30.2
2012-09-07 00:08:00,0.0,1.9302,0.0012,389.73,0.35,225.4,34.9,138.03,31.94,24.65,36.50,1.06,-25.81,-19.26,-47,39,-934,23.5,23.3,1.4,24.1,1.9,-28.8,5.73,2.56,-27.6,30.1
2012-09-07 00:09:00,0.0,1.9327,0.0013,389.99,0.29,231.9,30.7,138.03,31.94,24.65,36.50,0.98,-25.83,-19.88,-47,39,-935,23.5,23.5,1.4,24.0,1.9,-29.0,5.73,2.56,-27.6,30.1
2012-09-07 00:10:00,0.0,1.9325,0.0014,390.09,0.36,231.4,26.9,138.03,31.94,24.66,36.50,0.96,-25.85,-20.47,-47,39,-934,23.5,23.6,1.5,24.0,1.9,-29.0,5.73,2.53,-27.6,30.1
2012-09-07 00:11:00,0.0,1.9320,0.0015,389.85,0.33,224.7,34.4,138.03,31.94,24.66,36.50,1.02,-25.86,-21.03,-47,39,-934,23.4,23.7,1.5,24.0,1.9,-29.0,5.73,2.53,-27.6,30.1
2012-09-07 00:12:00,0.0,1.9313,0.0011,389.77,0.33,224.4,30.7,138.03,31.94,24.65,36.51,1.05,-25.88,-21.54,-47,39,-935,23.4,23.8,1.5,23.9,1.9,-29.0,5.73,2.56,-27.6,30.0
2012-09-07 00:13:00,0.0,1.9341,0.0018,390.10,0.37,218.4,38.3,138.03,31.94,24.65,36.50,1.01,-25.89,-22.02,-47,39,-935,23.3,23.8,1.5,23.9,1.9,-29.1,5.73,2.57,-27.6,29.9
2012-09-07 00:14:00,0.0,1.9325,0.0015,389.94,0.35,221.6,36.9,138.03,31.94,24.66,36.50,0.96,-25.90,-22.47,-47,39,-934,23.3,23.9,1.5,23.9,1.9,-29.1,5.73,2.54,-27.7,29.9
2012-09-07 00:15:00,0.0,1.9314,0.0016,389.78,0.39,224.0,34.2,138.03,31.94,24.65,36.51,1.00,-25.91,-22.90,-46,39,-935,23.3,23.8,1.4,23.8,1.9,-29.1,5.73,2.53,-27.7,29.8
2012-09-07 00:16:00,0.0,1.9307,0.0015,389.66,0.35,216.9,31.3,138.03,31.94,24.65,36.51,1.04,-25.93,-23.30,-47,39,-935,23.3,23.8,1.4,23.8,1.9,-29.1,5.73,2.55,-27.7,29.7
2012-09-07 00:17:00,0.0,1.9318,0.0014,389.81,0.35,224.2,34.9,138.03,31.94,24.66,36.51,1.02,-25.95,-23.68,-47,39,-934,23.2,24.1,1.6,23.8,1.9,-29.1,5.73,2.57,-27.7,29.7
2012-09-07 00:18:00,0.0,1.9300,0.0012,389.48,0.29,213.3,33.9,138.03,31.94,24.65,36.51,0.95,-25.96,-24.05,-46,39,-934,23.2,24.1,1.5,23.8,1.9,-29.2,5.73,2.55,-27.7,29.7
2012-09-07 00:19:00,0.0,1.9292,0.0011,389.65,0.35,217.0,30.7,138.03,31.94,24.65,36.50,0.99,-25.97,-24.39,-46,40,-935,23.2,24.0,1.5,23.7,1.9,-29.2,5.73,2.54,-27.7,29.6
2012-09-07 00:20:00,0.0,1.9273,0.0012,389.38,0.34,224.5,33.1,138.03,31.93,24.66,36.51,1.04,-25.99,-24.71,-46,40,-935,23.2,24.1,1.5,23.7,1.9,-29.2,5.73,2.55,-27.8,29.5
2012-09-07 00:21:00,0.0,1.9290,0.0012,389.49,0.29,210.5,38.2,138.03,31.93,24.65,36.51,1.03,-26.00,-25.02,-46,40,-934,23.1,24.2,1.6,23.7,1.9,-29.2,5.73,2.57,-27.8,29.5
2012-09-07 00:22:00,0.0,1.9285,0.0012,389.54,0.28,221.2,32.6,138.03,31.93,24.65,36.50,0.97,-26.02,-25.32,-46,40,-934,23.1,24.3,1.6,23.7,1.9,-29.2,5.73,2.56,-27.7,29.5
2012-09-07 00:23:00,0.0,1.9284,0.0011,389.48,0.31,218.0,31.5,138.03,31.93,24.66,36.50,0.97,-26.03,-25.60,-46,40,-934,23.1,24.4,1.7,23.6,1.9,-29.2,5.73,2.54,-27.7,29.6
2012-09-07 00:24:00,0.0,1.9270,0.0008,389.26,0.34,222.9,33.1,138.03,31.93,24.66,36.51,1.03,-26.05,-25.86,-46,40,-934,23.1,24.5,1.7,23.6,1.9,-29.2,5.73,2.54,-27.7,29.6
2012-09-07 00:25:00,0.0,1.9273,0.0010,389.42,0.25,220.3,32.3,138.03,31.93,24.65,36.50,1.03,-26.06,-26.06,-46,40,-934,23.1,24.4,1.7,23.6,1.9,-29.2,5.73,2.57,-27.7,29.6
2012-09-07 00:26:00,0.0,1.9270,0.0010,389.31,0.35,223.5,31.7,138.03,31.93,24.65,36.51,1.00,-26.07,-25.82,-46,40,-934,23.1,24.4,1.6,23.6,1.9,-29.3,5.73,2.57,-27.7,29.4
2012-09-07 00:27:00,0.0,1.9275,0.0011,389.37,0.35,211.8,27.9,138.03,31.93,24.65,36.50,0.96,-26.09,-25.91,-46,40,-934,23.1,24.5,1.7,23.6,1.9,-29.2,5.73,2.55,-27.8,29.4
2012-09-07 00:28:00,0.0,1.9267,0.0011,389.42,0.32,221.7,31.0,138.03,31.93,24.65,36.50,0.93,-26.09,-26.09,-46,40,-934,23.1,24.4,1.6,23.6,1.9,-29.2,5.73,2.54,-27.8,29.3
2012-09-07 00:29:00,0.0,1.9270,0.0011,389.38,0.34,216.3,32.1,138.03,31.93,24.65,36.51,0.99,-26.11,-25.86,-46,40,-933,23.1,24.5,1.6,23.5,1.9,-29.2,5.73,2.55,-27.8,29.4
2012-09-07 00:30:00,0.0,1.9276,0.0012,389.35,0.34,216.7,34.2,138.03,31.93,24.65,36.51,1.02,-26.12,-25.92,-46,40,-933,23.0,24.5,1.6,23.5,1.9,-29.3,5.73,2.57,-27.8,29.3
2012-09-07 00:31:00,0.0,1.9268,0.0012,389.38,0.32,213.2,35.2,138.03,31.93,24.66,36.50,1.05,-26.12,-26.11,-46,40,-934,23.0,24.5,1.6,23.5,1.9,-29.3,5.73,2.56,-27.8,29.3
2012-09-07 00:32:00,0.0,1.9284,0.0010,389.40,0.28,218.0,29.7,138.03,31.93,24.65,36.51,0.93,-26.14,-25.92,-46,40,-934,23.0,24.5,1.6,23.5,1.9,-29.2,5.73,2.54,-27.9,29.3
2012-09-07 00:33:00,0.0,1.9292,0.0010,389.46,0.36,207.5,32.7,138.03,31.93,24.65,36.51,0.98,-26.15,-25.93,-46,40,-933,23.0,24.5,1.6,23.5,1.9,-29.3,5.73,2.55,-27.9,29.3
2012-09-07 00:34:00,0.0,1.9296,0.0010,389.61,0.28,218.5,32.4,138.03,31.93,24.65,36.51,0.96,-26.16,-26.12,-46,40,-933,23.0,24.4,1.5,23.5,1.9,-29.3,5.73,2.57,-27.9,29.2
2012-09-07 00:35:00,0.0,1.9286,0.0011,389.60,0.34,216.5,32.4,138.03,31.93,24.65,36.50,0.97,-26.17,-26.00,-46,40,-934,23.0,24.4,1.5,23.5,1.9,-29.3,5.73,2.57,-27.9,29.2
2012-09-07 00:36:00,0.0,1.9282,0.0010,389.40,0.30,211.6,30.4,138.03,31.93,24.66,36.51,1.01,-26.17,-25.95,-46,40,-934,22.9,24.5,1.6,23.4,1.9,-29.3,5.73,2.55,-27.9,29.2
2012-09-07 00:37:00,0.0,1.9285,0.0013,389.52,0.32,209.5,35.0,138.03,31.93,24.65,36.50,1.07,-26.18,-26.13,-46,40,-933,22.9,24.6,1.6,23.4,1.9,-29.4,5.73,2.54,-27.8,29.3
2012-09-07 00:38:00,0.0,1.9292,0.0018,389.58,0.36,215.7,30.6,138.03,31.93,24.65,36.50,0.95,-26.19,-26.06,-46,40,-933,22.9,24.5,1.6,23.4,1.9,-29.4,5.73,2.56,-27.9,29.2
2012-09-07 00:39:00,0.0,1.9306,0.0011,389.74,0.35,215.8,34.0,138.03,31.93,24.66,36.51,1.00,-26.20,-25.96,-46,40,-933,22.9,24.8,1.7,23.4,1.9,-29.3,5.73,2.57,-27.9,29.2
2012-09-07 00:40:00,1.0,1.8993,0.0176,380.52,5.09,241.3,41.6,138.03,31.93,24.66,36.50,0.90,-26.11,-26.14,-42,-3,-934,22.9,24.9,1.8,23.4,1.8,-29.5,5.73,2.40,-27.5,29.1
2012-09-07 00:41:00,1.0,1.8832,0.0010,375.84,0.31,261.3,27.7,138.03,31.93,24.65,36.51,0.97,-24.94,-26.34,-42,-3,-933,22.9,25.0,1.8,23.3,1.8,-29.9,5.73,2.39,-27.5,29.1
2012-09-07 00:42:00,1.0,1.8835,0.0012,375.92,0.37,242.3,30.8,138.03,31.93,24.65,36.50,0.90,-23.07,-26.50,-42,-3,-933,22.9,24.8,1.7,23.4,1.9,-29.4,5.73,2.40,-27.8,29.2
2012-09-07 00:43:00,1.0,1.8832,0.0010,375.73,0.40,228.7,31.9,138.03,31.92,24.65,36.51,0.85,-21.14,-26.60,-42,-3,-933,22.9,24.9,1.8,23.4,2.0,-28.5,5.73,2.41,-28.2,29.2
2012-09-07 00:44:00,1.0,1.8828,0.0011,375.77,0.36,187.9,38.0,138.03,31.92,24.66,36.51,0.85,-19.26,-26.68,-42,-2,-933,23.0,24.8,1.8,23.4,2.1,-28.3,5.73,2.40,-28.6,29.2
2012-09-07 00:45:00,0.0,1.9142,0.0163,385.27,4.90,121.4,44.6,138.03,31.92,24.65,36.50,0.83,-17.40,-26.73,-46,40,-933,23.0,24.5,1.6,23.4,2.1,-28.1,5.73,2.56,-29.7,29.3
2012-09-07 00:46:00,0.0,1.9301,0.0014,389.67,0.34,164.3,36.4,138.03,31.93,24.65,36.50,0.92,-15.76,-26.76,-46,40,-933,23.0,24.7,1.8,23.5,2.1,-27.9,5.73,2.54,-28.5,29.3
2012-09-07 00:47:00,0.0,1.9269,0.0010,389.46,0.34,207.3,33.4,138.03,31.93,24.66,36.50,0.92,-14.15,-26.78,-46,40,-933,23.1,24.4,1.6,23.5,2.1,-27.9,5.73,2.54,-27.9,29.3
2012-09-07 00:48:00,0.0,1.9264,0.0010,389.36,0.31,225.7,33.7,138.03,31.93,24.65,36.50,0.94,-12.63,-26.80,-46,40,-933,23.1,24.4,1.7,23.5,2.1,-27.9,5.73,2.54,-27.6,29.3
2012-09-07 00:49:00,0.0,1.9251,0.0014,389.25,0.35,244.3,33.5,138.03,31.93,24.66,36.50,0.95,-11.18,-26.81,-46,40,-933,23.1,24.5,1.8,23.5,2.1,-27.9,5.73,2.56,-27.4,29.4
2012-09-07 00:50:00,0.0,1.9252,0.0009,389.31,0.32,247.3,37.2,138.03,31.93,24.65,36.51,0.92,-9.81,-26.81,-46,40,-933,23.2,24.6,1.8,23.5,2.1,-28.0,5.73,2.56,-27.4,29.4
2012-09-07 00:51:00,0.0,1.9247,0.0010,389.26,0.30,251.7,40.9,138.03,31.93,24.65,36.51,0.87,-8.51,-26.81,-46,40,-933,23.2,24.6,1.9,23.5,2.1,-27.9,5.73,2.55,-27.2,29.4
2012-09-07 00:52:00,0.0,1.9245,0.0011,389.23,0.31,253.9,37.1,138.03,31.93,24.66,36.50,0.85,-7.28,-26.81,-46,40,-933,23.2,24.3,1.7,23.5,2.1,-28.1,5.73,2.54,-27.2,29.4
2012-09-07 00:53:00,0.0,1.9246,0.0010,389.26,0.31,249.4,37.0,138.03,31.93,24.65,36.51,0.90,-6.10,-26.81,-46,40,-933,23.2,24.4,1.7,23.5,2.1,-28.1,5.73,2.53,-27.1,29.4
2012-09-07 00:54:00,0.0,1.9251,0.0012,389.20,0.32,255.8,32.9,138.03,31.94,24.66,36.51,0.90,-4.99,-26.81,-46,40,-933,23.2,24.5,1.8,23.5,2.1,-28.3,5.73,2.55,-27.2,29.4
2012-09-07 00:55:00,0.0,1.9272,0.0010,389.64,0.35,255.1,30.8,138.03,31.94,24.66,36.50,0.90,-3.91,-26.80,-46,40,-933,23.2,24.8,1.9,23.5,2.0,-28.3,5.73,2.55,-27.2,29.3
2012-09-07 00:56:00,0.0,1.9265,0.0012,389.31,0.36,252.0,36.2,138.03,31.94,24.65,36.51,0.91,-2.90,-26.80,-46,40,-933,23.2,24.5,1.8,23.5,2.0,-28.4,5.73,2.56,-27.2,29.3
2012-09-07 00:57:00,0.0,1.9265,0.0015,389.51,0.34,247.1,31.2,138.03,31.94,24.65,36.50,0.91,-1.95,-26.79,-46,40,-933,23.2,24.8,1.9,23.5,2.0,-28.4,5.73,2.55,-27.2,29.3
2012-09-07 00:58:00,0.0,1.9269,0.0011,389.51,0.34,249.4,40.1,138.03,31.94,24.65,36.51,0.93,-1.05,-26.78,-46,40,-933,23.2,25.0,2.1,23.5,2.0,-28.5,5.73,2.54,-27.3,29.4
2012-09-07 00:59:00,0.0,1.9267,0.0010,389.57,0.34,240.8,27.3,138.03,31.94,24.65,36.50,0.93,-0.19,-26.78,-46,40,-933,23.2,24.9,2.0,23.5,2.0,-28.6,5.73,2.53,-27.3,29.4
2012-09-07 01:00:00,0.0,1.9280,0.0010,389.64,0.33,238.5,37.2,138.03,31.94,24.65,36.50,0.94,0.61,-26.77,-46,40,-933,23.2,24.8,2.0,23.5,2.0,-28.6,5.73,2.54,-27.4,29.3
2012-09-07 01:01:00,0.0,1.9281,0.0012,389.51,0.31,242.9,35.1,138.03,31.93,24.66,36.51,0.94,1.37,-26.76,-46,40,-933,23.2,25.0,2.1,23.6,2.0,-28.7,5.73,2.56,-27.4,29.4
2012-09-07 01:02:00,0.0,1.9269,0.0012,389.55,0.37,233.8,35.9,138.03,31.93,24.65,36.50,0.94,2.07,-26.75,-46,40,-933,23.2,24.9,2.0,23.6,2.0,-28.8,5.73,2.56,-27.4,29.4
2012-09-07 01:03:00,0.0,1.9271,0.0011,389.48,0.31,236.6,31.0,138.03,31.93,24.65,36.51,0.94,2.65,-26.74,-46,40,-933,23.2,24.8,2.0,23.5,2.0,-28.8,5.73,2.55,-27.5,29.5
2012-09-07 01:04:00,0.0,1.9275,0.0011,389.68,0.36,233.8,37.4,138.03,31.93,24.65,36.50,0.93,2.88,-26.73,-46,40,-933,23.2,25.0,2.0,23.5,1.9,-28.9,5.73,2.54,-27.5,29.5
2012-09-07 01:05:00,0.0,1.9286,0.0014,389.55,0.37,230.6,33.5,138.03,31.93,24.65,36.51,0.92,3.07,-26.71,-46,40,-933,23.2,24.9,2.0,23.5,1.9,-29.0,5.73,2.53,-27.5,29.5
2012-09-07 01:06:00,0.0,1.9248,0.0015,389.26,0.34,225.0,32.8,138.03,31.93,24.65,36.51,0.93,3.43,-26.70,-46,40,-933,23.2,24.6,1.9,23.5,1.9,-29.0,5.73,2.53,-27.5,29.5
2012-09-07 01:07:00,0.0,1.9247,0.0009,389.40,0.32,223.6,28.8,138.03,31.94,24.66,36.50,0.92,3.84,-26.69,-46,40,-933,23.2,24.9,2.0,23.5,1.9,-29.1,5.73,2.54,-27.6,29.5
2012-09-07 01:08:00,0.0,1.9237,0.0011,389.35,0.33,222.8,35.0,138.03,31.94,24.65,36.50,0.92,4.33,-26.68,-46,40,-933,23.2,24.6,1.9,23.5,1.9,-29.2,5.73,2.55,-27.6,29.4
2012-09-07 01:09:00,0.0,1.9230,0.0011,389.24,0.37,217.9,34.8,138.03,31.94,24.65,36.50,0.91,4.80,-26.67,-46,40,-933,23.2,24.5,1.8,23.5,1.9,-29.1,5.73,2.55,-27.7,29.3
2012-09-07 01:10:00,0.0,1.9237,0.0013,389.22,0.32,220.1,36.5,138.03,31.94,24.65,36.50,0.92,5.20,-26.66,-46,40,-933,23.2,24.5,1.8,23.6,1.9,-29.3,5.73,2.55,-27.7,29.4
2012-09-07 01:11:00,0.0,1.9253,0.0010,389.40,0.30,226.5,38.6,138.03,31.94,24.65,36.50,0.90,5.57,-26.65,-46,40,-932,23.2,24.9,2.0,23.5,1.9,-29.2,5.73,2.54,-27.7,29.4
2012-09-07 01:12:00,0.0,1.9247,0.0010,389.38,0.35,221.1,35.7,138.03,31.94,24.65,36.50,0.91,5.99,-26.64,-46,40,-932,23.2,25.1,2.1,23.5,1.9,-29.3,5.73,2.53,-27.7,29.4
2012-09-07 01:13:00,0.0,1.9237,0.0011,389.23,0.36,218.1,32.7,138.03,31.94,24.65,36.50,0.91,6.57,-26.62,-46,40,-933,23.2,24.8,1.9,23.6,1.9,-29.2,5.73,2.53,-27.7,29.4
2012-09-07 01:14:00,0.0,1.9226,0.0009,389.26,0.34,223.2,35.5,138.03,31.94,24.66,36.50,0.94,7.08,-26.62,-46,40,-933,23.2,24.4,1.7,23.5,1.9,-29.3,5.73,2.54,-27.7,29.6
2012-09-07 01:15:00,0.0,1.9225,0.0010,389.20,0.30,225.0,34.7,138.03,31.94,24.66,36.50,0.93,7.52,-26.60,-46,40,-933,23.2,24.3,1.7,23.5,1.9,-29.3,5.73,2.55,-27.7,29.6
2012-09-07 01:16:00,0.0,1.9229,0.0010,389.16,0.31,217.7,32.1,138.03,31.94,24.65,36.50,0.92,7.93,-26.59,-45,40,-933,23.2,24.3,1.7,23.6,1.9,-29.3,5.73,2.54,-27.7,29.6
2012-09-07 01:17:00,0.0,1.9223,0.0010,389.18,0.31,224.0,35.9,138.03,31.94,24.65,36.50,0.92,8.32,-26.58,-46,40,-933,23.2,24.3,1.7,23.6,1.9,-29.2,5.73,2.54,-27.7,29.7
2012-09-07 01:18:00,0.0,1.9237,0.0010,389.17,0.32,223.0,37.1,138.03,31.94,24.65,36.51,0.92,8.70,-26.57,-46,40,-933,23.2,24.6,1.8,23.6,1.9,-29.3,5.73,2.54,-27.7,29.7
2012-09-07 01:19:00,0.0,1.9237,0.0012,389.29,0.29,220.6,35.3,138.03,31.95,24.65,36.50,0.94,9.07,-26.56,-46,40,-933,23.2,25.2,2.2,23.6,1.9,-29.2,5.73,2.53,-27.7,29.6
2012-09-07 01:20:00,0.0,1.9223,0.0010,389.31,0.30,216.6,33.5,138.03,31.95,24.66,36.50,0.93,9.42,-26.55,-46,40,-933,23.2,25.2,2.2,23.6,1.9,-29.2,5.73,2.52,-27.7,29.5
2012-09-07 01:21:00,0.0,1.9215,0.0011,389.24,0.34,213.4,35.2,138.03,31.95,24.66,36.51,0.93,9.77,-26.54,-45,40,-933,23.2,24.9,2.0,23.5,1.9,-29.3,5.73,2.53,-27.8,29.5
2012-09-07 01:22:00,0.0,1.9227,0.0011,389.35,0.31,213.4,33.3,138.03,31.95,24.65,36.50,0.93,10.10,-26.53,-46,40,-933,23.2,24.8,2.0,23.6,1.9,-29.3,5.73,2.54,-27.8,29.5
2012-09-07 01:23:00,0.0,1.9221,0.0013,389.14,0.38,214.1,35.1,138.03,31.95,24.65,36.51,0.94,10.43,-26.52,-46,40,-933,23.2,25.0,2.1,23.6,1.9,-29.3,5.73,2.55,-27.8,29.5
2012-09-07 01:24:00,0.0,1.9205,0.0008,389.18,0.32,215.9,34.7,138.03,31.95,24.65,36.50,0.94,10.74,-26.51,-46,40,-932,23.2,24.9,2.0,23.6,1.9,-29.2,5.73,2.54,-27.8,29.4
2012-09-07 01:25:00,0.0,1.9201,0.0011,388.84,0.34,209.8,38.9,138.03,31.95,24.65,36.51,0.94,11.04,-26.51,-46,40,-932,23.2,24.5,1.8,23.6,1.9,-29.3,5.73,2.54,-27.8,29.4
2012-09-07 01:26:00,0.0,1.9204,0.0010,389.03,0.35,214.1,34.3,138.03,31.95,24.66,36.50,0.94,11.32,-26.50,-45,40,-933,23.2,24.6,1.9,23.6,1.9,-29.2,5.73,2.53,-27.8,29.5
2012-09-07 01:27:00,0.0,1.9201,0.0012,389.02,0.30,218.2,36.4,138.03,31.95,24.66,36.50,0.94,11.61,-26.49,-45,40,-933,23.2,24.9,2.0,23.6,1.9,-29.3,5.73,2.53,-27.8,29.5
2012-09-07 01:28:00,0.0,1.9197,0.0009,388.98,0.29,211.8,33.7,138.03,31.95,24.66,36.51,0.94,11.87,-26.49,-46,40,-933,23.2,25.0,2.1,23.5,1.9,-29.3,5.73,2.53,-27.8,29.4
2012-09-07 01:29:00,0.0,1.9200,0.0009,389.08,0.33,214.4,34.9,138.03,31.95,24.65,36.50,0.94,12.13,-26.48,-46,40,-933,23.2,25.1,2.1,23.6,1.9,-29.3,5.73,2.54,-27.8,29.4
2012-09-07 01:30:00,0.0,1.9200,0.0009,389.02,0.31,212.5,35.3,138.03,31.95,24.65,36.51,0.94,12.38,-26.47,-46,40,-933,23.2,24.9,2.0,23.5,1.9,-29.3,5.73,2.55,-27.8,29.5
2012-09-07 01:31:00,0.0,1.9198,0.0009,389.03,0.37,211.8,32.5,138.03,31.95,24.66,36.51,0.93,12.62,-26.46,-45,40,-933,23.2,24.9,2.0,23.5,1.9,-29.3,5.73,2.55,-27.8,29.4
2012-09-07 01:32:00,0.0,1.9198,0.0012,389.07,0.33,212.4,34.5,138.03,31.95,24.65,36.50,0.94,12.85,-26.45,-46,40,-932,23.2,25.2,2.2,23.5,1.9,-29.2,5.73,2.54,-27.8,29.4
2012-09-07 01:33:00,0.0,1.9199,0.0010,389.08,0.35,209.7,31.9,138.03,31.95,24.65,36.51,0.94,13.07,-26.45,-46,40,-933,23.2,25.4,2.3,23.5,1.9,-29.2,5.73,2.53,-27.8,29.5
2012-09-07 01:34:00,0.0,1.9199,0.0011,389.05,0.32,210.0,31.0,138.03,31.95,24.65,36.51,0.94,13.29,-26.44,-46,40,-933,23.2,25.5,2.3,23.5,1.9,-29.3,5.73,2.53,-27.8,29.5
2012-09-07 01:35:00,0.0,1.9200,0.0009,389.00,0.29,209.8,36.2,138.03,31.95,24.65,36.50,0.93,13.49,-26.44,-46,40,-933,23.2,25.4,2.3,23.5,1.9,-29.3,5.73,2.54,-27.8,29.6
2012-09-07 01:36:00,0.0,1.9196,0.0009,388.89,0.36,205.6,32.8,138.03,31.95,24.65,36.50,0.93,13.68,-26.43,-46,40,-933,23.2,25.2,2.2,23.6,1.9,-29.2,5.73,2.54,-27.8,29.6
2012-09-07 01:37:00,0.0,1.9188,0.0010,388.88,0.33,214.0,32.4,138.03,31.95,24.66,36.50,0.93,13.88,-26.42,-46,40,-933,23.2,24.7,1.9,23.5,1.9,-29.3,5.73,2.55,-27.8,29.6
2012-09-07 01:38:00,0.0,1.9188,0.0011,388.83,0.35,214.7,31.7,138.03,31.95,24.65,36.50,0.94,14.06,-26.42,-46,40,-932,23.2,24.5,1.8,23.6,1.9,-29.3,5.73,2.55,-27.8,29.6
2012-09-07 01:39:00,0.0,1.9183,0.0011,388.71,0.28,216.5,34.0,138.03,31.95,24.65,36.50,0.94,14.23,-26.41,-46,40,-932,23.2,24.5,1.8,23.6,1.8,-29.4,5.73,2.54,-27.8,29.5
2012-09-07 01:40:00,0.0,1.9185,0.0010,388.59,0.36,212.4,32.9,138.03,31.95,24.65,36.51,0.94,14.40,-26.41,-46,40,-933,23.2,24.3,1.7,23.6,1.8,-29.4,5.73,2.54,-27.8,29.5
2012-09-07 01:41:00,0.0,1.9201,0.0009,388.91,0.33,208.7,36.4,138.03,31.95,24.65,36.51,0.93,14.55,-26.40,-46,40,-933,23.2,24.8,2.0,23.6,1.8,-29.4,5.73,2.53,-27.8,29.5
2012-09-07 01:42:00,0.0,1.9206,0.0011,388.99,0.32,209.7,31.5,138.03,31.95,24.66,36.50,0.94,14.70,-26.41,-46,40,-933,23.2,24.8,1.9,23.6,1.8,-29.4,5.73,2.53,-27.8,29.5
2012-09-07 01:43:00,0.0,1.9200,0.0008,388.95,0.28,209.7,33.3,138.03,31.96,24.66,36.50,0.95,14.84,-26.40,-46,40,-933,23.2,24.9,2.0,23.6,1.8,-29.4,5.73,2.53,-27.9,29.4
2012-09-07 01:44:00,0.0,1.9208,0.0009,388.98,0.29,205.3,37.5,138.03,31.96,24.66,36.50,0.94,14.98,-26.39,-46,40,-932,23.2,24.7,1.9,23.6,1.8,-29.4,5.73,2.55,-27.9,29.4
2012-09-07 01:45:00,0.0,1.9209,0.0012,389.03,0.28,210.0,32.5,138.03,31.96,24.65,36.50,0.94,15.11,-26.39,-46,40,-933,23.2,25.2,2.2,23.6,1.8,-29.5,5.73,2.56,-27.9,29.4
2012-09-07 01:46:00,0.0,1.9208,0.0011,388.99,0.35,193.9,33.9,138.03,31.96,24.65,36.51,0.93,15.24,-26.38,-46,40,-933,23.2,25.2,2.2,23.6,1.8,-29.4,5.73,2.55,-27.9,29.5
2012-09-07 01:47:00,0.0,1.9201,0.0009,388.91,0.34,209.5,37.2,138.03,31.95,24.65,36.50,0.94,15.36,-26.38,-46,40,-933,23.2,25.1,2.2,23.6,1.8,-29.4,5.73,2.54,-27.9,29.4
2012-09-07 01:48:00,0.0,1.9199,0.0012,388.75,0.37,202.3,34.4,138.03,31.95,24.66,36.51,0.93,15.47,-26.37,-46,40,-933,23.2,25.2,2.2,23.5,1.9,-29.3,5.73,2.53,-27.9,29.4
2012-09-07 01:49:00,0.0,1.9213,0.0009,389.03,0.40,199.2,32.6,138.03,31.95,24.65,36.51,0.93,15.58,-26.37,-46,40,-932,23.2,25.7,2.4,23.6,1.8,-29.4,5.73,2.54,-27.9,29.4
2012-09-07 01:50:00,0.0,1.9215,0.0011,389.03,0.30,203.8,37.8,138.03,31.95,24.65,36.50,0.95,15.69,-26.36,-46,40,-933,23.2,25.8,2.5,23.5,1.8,-29.4,5.73,2.55,-27.9,29.3
2012-09-07 01:51:00,0.0,1.9210,0.0011,389.14,0.32,202.1,35.9,138.04,31.94,24.65,36.50,0.94,15.79,-26.36,-46,40,-933,23.2,25.7,2.5,23.6,1.8,-29.4,5.73,2.56,-27.9,29.3
2012-09-07 01:52:00,0.0,1.9212,0.0010,389.09,0.36,207.7,34.2,138.03,31.94,24.66,36.50,0.94,15.89,-26.36,-46,40,-933,23.2,25.1,2.1,23.5,1.8,-29.4,5.73,2.55,-27.9,29.4
2012-09-07 01:53:00,0.0,1.9215,0.0010,389.08,0.39,205.4,31.3,138.03,31.94,24.65,36.50,0.94,15.98,-26.35,-46,40,-933,23.2,25.4,2.3,23.5,1.8,-29.4,5.73,2.54,-27.9,29.4
2012-09-07 01:54:00,0.0,1.9212,0.0014,389.14,0.34,199.7,32.5,138.03,31.94,24.65,36.50,0.93,16.06,-26.35,-46,40,-932,23.2,25.3,2.3,23.5,1.8,-29.4,5.73,2.53,-27.9,29.4
2012-09-07 01:55:00,0.0,1.9211,0.0011,389.04,0.38,201.6,29.7,138.03,31.94,24.66,36.51,0.95,16.15,-26.35,-46,40,-932,23.2,25.1,2.1,23.5,1.8,-29.4,5.73,2.54,-27.9,29.4
2012-09-07 01:56:00,0.0,1.9214,0.0012,389.07,0.33,199.8,31.1,138.03,31.94,24.66,36.51,0.92,16.23,-26.35,-46,40,-933,23.2,24.9,2.0,23.6,1.8,-29.4,5.73,2.55,-27.9,29.4
2012-09-07 01:57:00,0.0,1.9214,0.0010,389.06,0.38,206.9,36.7,138.03,31.94,24.65,36.51,0.94,16.30,-26.34,-46,40,-933,23.2,25.0,2.1,23.5,1.8,-29.4,5.73,2.56,-27.9,29.4
2012-09-07 01:58:00,0.0,1.9214,0.0010,389.04,0.34,196.2,31.7,138.03,31.94,24.65,36.50,0.93,16.38,-26.34,-46,40,-933,23.2,24.9,2.1,23.5,1.8,-29.4,5.73,2.56,-27.9,29.4
2012-09-07 01:59:00,0.0,1.9213,0.0013,389.00,0.37,202.6,32.7,138.03,31.94,24.65,36.50,0.94,16.44,-26.34,-46,40,-933,23.3,25.1,2.2,23.6,1.8,-29.4,5.73,2.54,-27.9,29.3
2012-09-07 02:00:00,0.0,1.9212,0.0009,388.89,0.30,206.4,29.0,138.03,31.94,24.65,36.51,0.94,16.52,-26.34,-46,40,-933,23.3,25.1,2.2,23.6,1.9,-29.3,5.73,2.54,-27.9,29.4
2012-09-07 02:01:00,0.0,1.9212,0.0009,389.02,0.30,196.5,30.9,138.03,31.94,24.66,36.50,0.93,16.58,-26.33,-46,40,-933,23.3,25.2,2.3,23.6,1.8,-29.4,5.73,2.54,-27.9,29.3
2012-09-07 02:02:00,0.0,1.9217,0.0010,388.80,0.32,200.1,39.0,138.03,31.94,24.65,36.50,0.94,16.64,-26.33,-46,40,-932,23.3,24.9,2.1,23.6,1.8,-29.4,5.73,2.55,-27.9,29.3
2012-09-07 02:03:00,0.0,1.9217,0.0008,388.70,0.34,203.1,33.2,138.04,31.93,24.65,36.51,0.93,16.70,-26.33,-46,40,-933,23.3,24.5,1.8,23.5,1.8,-29.4,5.73,2.57,-27.9,29.3
2012-09-07 02:04:00,0.0,1.9209,0.0010,388.84,0.32,195.8,34.3,138.04,31.93,24.66,36.50,0.94,16.76,-26.33,-46,40,-933,23.3,24.5,1.8,23.6,1.8,-29.4,5.73,2.56,-27.9,29.3
2012-09-07 02:05:00,0.0,1.9211,0.0010,388.80,0.29,199.1,33.7,138.04,31.93,24.66,36.50,0.94,16.81,-26.33,-46,40,-933,23.3,24.2,1.7,23.5,1.8,-29.4,5.73,2.54,-27.9,29.3
2012-09-07 02:06:00,0.0,1.9208,0.0009,389.27,0.36,204.4,34.8,138.04,31.93,24.65,36.50,0.94,16.86,-26.33,-46,40,-932,23.3,25.2,2.2,23.6,1.8,-29.4,5.73,2.54,-27.9,29.3
2012-09-07 02:07:00,0.0,1.9206,0.0010,389.14,0.34,197.0,34.4,138.04,31.93,24.65,36.51,0.94,16.91,-26.32,-46,40,-932,23.3,25.6,2.5,23.6,1.8,-29.4,5.73,2.55,-27.9,29.3
2012-09-07 02:08:00,0.0,1.9203,0.0012,389.22,0.29,202.4,40.7,138.04,31.92,24.66,36.50,0.93,16.96,-26.32,-46,40,-933,23.3,25.6,2.4,23.5,1.8,-29.5,5.73,2.57,-27.9,29.3
2012-09-07 02:09:00,0.0,1.9210,0.0009,389.15,0.30,204.7,36.1,138.04,31.92,24.65,36.51,0.93,17.00,-26.32,-46,40,-933,23.3,25.4,2.3,23.6,1.8,-29.4,5.73,2.56,-27.9,29.3
2012-09-07 02:10:00,0.0,1.9206,0.0009,389.12,0.35,204.1,32.3,138.04,31.92,24.66,36.51,0.92,17.04,-26.32,-46,40,-933,23.3,25.1,2.2,23.6,1.8,-29.4,5.73,2.55,-27.9,29.4
2012-09-07 02:11:00,0.0,1.9210,0.0010,389.04,0.26,199.9,33.3,138.03,31.92,24.66,36.50,0.93,17.09,-26.31,-46,40,-933,23.3,25.0,2.1,23.6,1.8,-29.4,5.73,2.54,-27.9,29.3
2012-09-07 02:12:00,0.0,1.9212,0.0009,389.02,0.38,205.5,31.9,138.04,31.92,24.66,36.50,0.93,17.13,-26.31,-46,40,-933,23.3,24.8,2.0,23.6,1.8,-29.4,5.73,2.54,-27.9,29.3
2012-09-07 02:13:00,0.0,1.9212,0.0010,389.06,0.29,199.8,26.6,138.04,31.92,24.66,36.50,0.94,17.17,-26.31,-46,40,-932,23.3,24.7,2.0,23.6,1.9,-29.3,5.73,2.55,-27.9,29.3
2012-09-07 02:14:00,0.0,1.9215,0.0011,388.98,0.33,193.9,35.5,138.04,31.92,24.65,36.50,0.94,17.20,-26.31,-46,40,-932,23.3,24.9,2.1,23.6,1.8,-29.4,5.73,2.56,-27.9,29.4
2012-09-07 02:15:00,0.0,1.9205,0.0009,389.09,0.34,202.1,31.2,138.03,31.92,24.65,36.50,0.93,17.24,-26.30,-46,40,-932,23.3,25.2,2.3,23.6,1.8,-29.4,5.73,2.56,-27.9,29.3
2012-09-07 02:16:00,0.0,1.9205,0.0010,389.07,0.30,208.2,35.8,138.04,31.92,24.65,36.51,0.95,17.28,-26.30,-46,40,-933,23.3,25.5,2.4,23.6,1.8,-29.4,5.73,2.55,-27.9,29.3
2012-09-07 02:17:00,0.0,1.9213,0.0010,388.99,0.34,198.7,34.0,138.04,31.92,24.66,36.51,0.95,17.30,-26.30,-46,40,-933,23.3,25.2,2.2,23.6,1.8,-29.4,5.73,2.54,-27.9,29.3
2012-09-07 02:18:00,0.0,1.9221,0.0010,388.95,0.30,202.2,32.6,138.03,31.92,24.65,36.51,0.94,17.34,-26.30,-46,40,-933,23.3,24.8,2.0,23.6,1.8,-29.3,5.73,2.54,-27.9,29.3
2012-09-07 02:19:00,0.0,1.9223,0.0012,388.94,0.29,194.1,34.1,138.03,31.92,24.65,36.51,0.93,17.37,-26.30,-46,40,-933,23.3,24.4,1.8,23.6,1.9,-29.3,5.73,2.55,-27.9,29.3
2012-09-07 02:20:00,0.0,1.9215,0.0011,388.91,0.34,200.2,31.6,138.03,31.92,24.65,36.51,0.95,17.40,-26.30,-46,40,-933,23.3,24.5,1.9,23.6,1.8,-29.4,5.73,2.57,-27.9,29.4